Bay St. Louis, MS Weather Center

Moon Phase Calendar



Online Cameras

 


      

Current Conditions in Waveland
9/26/2021 11:43:03 PM

66°F
Feels Like 65
Clouds
Humidity
77%
Pressure
30.09"
Wind
1.6 mph (SE)
Dew Point
58°F
UV Index
0/10 (Low)
Visibility
6 mi

Hourly Forecast

Date & Time Sun, Sep 26
11:00 PM
Mon, Sep 27
12:00 AM
Mon, Sep 27
1:00 AM
Mon, Sep 27
2:00 AM
Mon, Sep 27
3:00 AM
Mon, Sep 27
4:00 AM
Mon, Sep 27
5:00 AM
Mon, Sep 27
6:00 AM
Mon, Sep 27
7:00 AM
Mon, Sep 27
8:00 AM
Mon, Sep 27
9:00 AM
Mon, Sep 27
10:00 AM
Mon, Sep 27
11:00 AM
Mon, Sep 27
12:00 PM
Mon, Sep 27
1:00 PM
Mon, Sep 27
2:00 PM
Mon, Sep 27
3:00 PM
Mon, Sep 27
4:00 PM
Mon, Sep 27
5:00 PM
Mon, Sep 27
6:00 PM
Mon, Sep 27
7:00 PM
Mon, Sep 27
8:00 PM
Mon, Sep 27
9:00 PM
Mon, Sep 27
10:00 PM
Mon, Sep 27
11:00 PM
Tue, Sep 28
12:00 AM
Tue, Sep 28
1:00 AM
Tue, Sep 28
2:00 AM
Tue, Sep 28
3:00 AM
Tue, Sep 28
4:00 AM
Tue, Sep 28
5:00 AM
Tue, Sep 28
6:00 AM
Tue, Sep 28
7:00 AM
Tue, Sep 28
8:00 AM
Tue, Sep 28
9:00 AM
Tue, Sep 28
10:00 AM
Tue, Sep 28
11:00 AM
Tue, Sep 28
12:00 PM
Tue, Sep 28
1:00 PM
Tue, Sep 28
2:00 PM
Tue, Sep 28
3:00 PM
Tue, Sep 28
4:00 PM
Tue, Sep 28
5:00 PM
Tue, Sep 28
6:00 PM
Tue, Sep 28
7:00 PM
Tue, Sep 28
8:00 PM
Tue, Sep 28
9:00 PM
Tue, Sep 28
10:00 PM
Condition
Clouds

Clouds

Clouds

Clouds

Clouds

Clouds

Clouds

Clouds

Clouds

Clouds

Clouds

Clouds

Clouds

Clouds

Clouds

Clouds

Clouds

Clouds

Clouds

Clouds

Clouds

Clear

Clouds

Clouds

Clouds

Clouds

Clouds

Clouds

Clouds

Clouds

Clouds

Clouds

Clouds

Clouds

Clouds

Clouds

Clouds

Clouds

Clouds

Clouds

Rain

Clouds

Clouds

Clouds

Clouds

Clouds

Clouds

Clouds
Temperature 66°F66°F66°F67°F67°F67°F67°F67°F67°F69°F73°F76°F78°F79°F80°F80°F80°F80°F79°F77°F74°F73°F74°F74°F74°F74°F74°F74°F74°F74°F74°F74°F74°F76°F78°F80°F81°F82°F82°F82°F81°F81°F79°F78°F76°F76°F76°F76°F
Feels Like 66°F65°F66°F67°F67°F67°F67°F67°F67°F69°F73°F76°F79°F79°F82°F82°F82°F80°F79°F78°F75°F75°F75°F75°F76°F76°F75°F75°F75°F75°F75°F75°F75°F77°F80°F84°F85°F86°F86°F86°F86°F84°F79°F79°F78°F77°F77°F77°F
Cloudiness 72%69%67%54%67%75%80%82%84%100%89%66%52%43%45%26%43%31%27%25%23%10%52%68%74%79%81%71%85%77%79%83%85%100%93%85%75%79%82%100%100%100%100%100%100%100%100%100%
Visibility 6 mi6 mi6 mi6 mi6 mi6 mi6 mi6 mi6 mi6 mi6 mi6 mi6 mi6 mi6 mi6 mi6 mi6 mi6 mi6 mi6 mi6 mi6 mi6 mi6 mi6 mi6 mi6 mi6 mi6 mi6 mi6 mi6 mi6 mi6 mi6 mi6 mi6 mi6 mi6 mi6 mi6 mi6 mi6 mi6 mi6 mi6 mi6 mi
Precipitation 0%0%0%0%0%0%0%0%0%0%0%0%0%0%0%2%2%2%2%2%2%0%0%0%0%0%0%30%14%19%29%32%28%29%26%24%24%24%28%42%56%57%58%56%52%0%0%0%
Humidity 76%77%78%78%79%81%82%84%85%82%75%69%65%62%61%61%62%65%69%78%87%90%92%93%93%93%93%93%93%93%93%93%93%90%83%76%72%71%71%72%73%74%79%84%87%89%89%91%
Dew Point 59°F58°F59°F60°F60°F61°F61°F61°F62°F63°F64°F65°F65°F64°F64°F65°F66°F66°F68°F69°F69°F70°F71°F72°F72°F72°F72°F72°F72°F71°F71°F71°F71°F72°F72°F72°F71°F71°F71°F71°F71°F71°F72°F72°F72°F72°F72°F73°F
Pressure 30.09"30.09"30.09"30.09"30.06"30.06"30.06"30.06"30.06"30.09"30.09"30.12"30.09"30.09"30.09"30.06"30.03"30"30"30"30.03"30.03"30.03"30.03"30.03"30.03"30"30"30"30"30"30"30.03"30.03"30.03"30.03"30.03"30.03"30"30"29.97"29.97"29.97"29.97"29.97"29.94"29.97"29.97"
Wind Speed 2.4 mph1.6 mph1.6 mph1.7 mph1 mph2 mph2.7 mph3.7 mph4.4 mph4.7 mph5.4 mph5.4 mph5.6 mph5.8 mph6 mph5.9 mph5.9 mph6.2 mph7 mph6.7 mph6.2 mph6.6 mph6.5 mph6.6 mph6 mph5.8 mph5.1 mph4.7 mph4.2 mph3.2 mph2.8 mph3.1 mph3.6 mph4 mph5.5 mph6.9 mph7.3 mph7.7 mph8.3 mph8.6 mph8.7 mph8.7 mph8.2 mph7.4 mph6.8 mph7.3 mph7.6 mph7.2 mph
Wind
Direction
159°
SSE
128°
SE
77°
ENE
42°
NE
35°
NE
45°
NE
46°
NE
49°
NE
49°
NE
52°
NE
66°
ENE
84°
E
103°
ESE
116°
ESE
131°
SE
138°
SE
140°
SE
134°
SE
133°
SE
140°
SE
145°
SE
143°
SE
145°
SE
141°
SE
145°
SE
147°
SSE
151°
SSE
153°
SSE
154°
SSE
150°
SSE
135°
SE
118°
ESE
112°
ESE
103°
ESE
111°
ESE
123°
ESE
127°
SE
132°
SE
134°
SE
135°
SE
139°
SE
140°
SE
143°
SE
145°
SE
145°
SE
143°
SE
149°
SSE
148°
SSE

Daily Forecast

Date High Low Precip. Humidity
Today
Sep 26

Clear
80 °F
64 °F
0%
49%
Monday
Sep 27

Clouds
80 °F
66 °F
2%
62%
Tuesday
Sep 28

Rain
82 °F
74 °F
57%
71%
Wednesday
Sep 29

Rain
83 °F
74 °F
90%
68%
Thursday
Sep 30

Rain
81 °F
74 °F
75%
66%
Friday
Oct 1

Clouds
81 °F
72 °F
0%
66%
Saturday
Oct 2

Rain
82 °F
72 °F
32%
66%
Sunday
Oct 3

Rain
78 °F
73 °F
49%
77%
Monday
Oct 4

Rain
78 °F
72 °F
55%
74%
Tuesday
Oct 5

Rain
74 °F
70 °F
100%
88%
Wednesday
Oct 6

Rain
78 °F
68 °F
67%
71%
Thursday
Oct 7

Rain
80 °F
69 °F
20%
66%
Friday
Oct 8

Clouds
79 °F
60 °F
0%
42%
Saturday
Oct 9

Clear
81 °F
60 °F
0%
49%
Sunday
Oct 10

Clear
83 °F
63 °F
0%
54%
Monday
Oct 11

Clear
82 °F
68 °F
0%
58%

Temperature 8-14 Day Outlook



Precipitation 8-14 Day Outlook




Quick Links
Bay St. Louis, MS News
Bay St. Louis, MS Photos
Bay St. Louis, MS Videos




About Us
Contact Us
Site Map
Search Site
Advertise With Us
   
BayStLouis.CoastalTown.com
THE BAY ST. LOUIS, MS WEBSITE

Copyright 2021, Coastal Town
Privacy    |    Legal